This is the latest recevied weather packets stored in our database for station/object WC4PEM-12. If no packets are shown the sender has not sent any weather packets the latest 1 day(s).
| Time | Temp. | Humidity | Pressure | Rain* | Wind** | Luminosity | Snow |
|---|---|---|---|---|---|---|---|
| 1778003791 | 31.11° C | 52% | 1015.4 hPa | 0 mm | 2.24 m/s, 104° | - | - |
| 1778003575 | 31.11° C | 52% | 1015.4 hPa | 0 mm | 2.24 m/s, 104° | - | - |
| 1778003451 | 30.56° C | 51% | 1015.5 hPa | 0 mm | 2.24 m/s, 104° | - | - |
| 1778003275 | 30.56° C | 51% | 1015.5 hPa | 0 mm | 2.24 m/s, 104° | - | - |
| 1778002975 | 30.56° C | 56% | 1015.6 hPa | 0 mm | 2.24 m/s, 104° | - | - |
| 1778002675 | 30.56° C | 52% | 1015.7 hPa | 0 mm | 2.24 m/s, 104° | - | - |
| 1778002540 | 29.44° C | 55% | 1015.9 hPa | 0 mm | 2.24 m/s, 104° | - | - |
| 1778002375 | 30° C | 51% | 1015.7 hPa | 0 mm | 2.24 m/s, 104° | - | - |
| 1778002202 | 30.56° C | 51% | 1015.5 hPa | 0 mm | 2.24 m/s, 104° | - | - |
| 1778002075 | 30.56° C | 51% | 1015.5 hPa | 0 mm | 2.24 m/s, 104° | - | - |
| 1778001775 | 30° C | 50% | 1015.7 hPa | 0 mm | 2.24 m/s, 104° | - | - |
| 1778001592 | 30° C | 54% | 1015.6 hPa | 0 mm | 2.24 m/s, 104° | - | - |
| 1778001518 | 30° C | 54% | 1015.6 hPa | 0 mm | 2.24 m/s, 104° | - | - |
| 1778001475 | 30° C | 54% | 1015.6 hPa | 0 mm | 2.24 m/s, 104° | - | - |
| 1778001175 | 30° C | 54% | 1015.7 hPa | 0 mm | 2.24 m/s, 104° | - | - |
| 1778000875 | 29.44° C | 54% | 1015.6 hPa | 0 mm | 2.24 m/s, 104° | - | - |
| 1778000702 | 29.44° C | 55% | 1015.9 hPa | 0 mm | 2.24 m/s, 104° | - | - |
| 1778000575 | 29.44° C | 55% | 1015.9 hPa | 0 mm | 2.24 m/s, 104° | - | - |
| 1778000478 | 29.44° C | 54% | 1015.9 hPa | 0 mm | 2.24 m/s, 104° | - | - |
| 1778000313 | 29.44° C | 54% | 1015.9 hPa | 0 mm | 2.24 m/s, 104° | - | - |
| 1778000275 | 29.44° C | 54% | 1015.9 hPa | 0 mm | 2.24 m/s, 104° | - | - |
| 1777999975 | 29.44° C | 54% | 1016 hPa | 0 mm | 2.24 m/s, 104° | - | - |
| 1777999823 | 29.44° C | 55% | 1015.9 hPa | 0 mm | 2.24 m/s, 104° | - | - |
| 1777999675 | 29.44° C | 55% | 1015.9 hPa | 0 mm | 2.24 m/s, 104° | - | - |
| 1777999494 | 29.44° C | 54% | 1015.9 hPa | 0 mm | 2.24 m/s, 104° | - | - |
* Rain latest hour (hover to see other rain measurements)
** Current wind speed in m/s (hover to see current wind gust speed)